Home   Weather   Scottsbluff   Past weeks
Flag for USA

Past Weather in Scottsbluff, Nebraska, USA — Yesterday and Last 2 Weeks

Now
84 °F

Sunny.


Feels Like: 83 °F
Forecast: 99 / 59 °F
Wind: 5 mph from North

Location: Heilig Field

Current Time: Jul 19, 2019 at 11:13:57 am

Latest Report: Jul 19, 2019 at 9:53 am


Visibility: 10 mi

Pressure: 29.70 "Hg (25.97 "Hg at 1186m altitude)

Humidity: 35%

Dew Point: 53 °F

Location of ScottsbluffLocation

Past Weather in Scottsbluff — Graph

°F

Scottsbluff Temperature Yesterday

Maximum temperature yesterday: 102 °F (at 3:53 pm)
Minimum temperature yesterday: 61 °F (at 5:53 am)
Average temperature yesterday: 80 °F

High & Low Weather Summary for the Past Weeks

 TemperatureHumidityPressure
High102 °F (Jul 18, 3:53 pm)87% (Jul 19, 3:53 am)30.32 "Hg (Jul 19, 3:53 am)
Low52 °F (Jul 10, 4:53 am)13% (Jul 18, 3:53 pm)29.58 "Hg (Jul 18, 5:53 pm)
Average73 °F50%29.93 "Hg
* Reported Jul 4 9:53 am — Jul 19 9:53 am, Scottsbluff. Weather by CustomWeather, © 2019

Note: Actual official high and low records may vary slightly from our data, if they occured in-between our weather recording intervals... More about our weather records

Advertising

Scottsbluff Weather History for the Previous 24 Hours

Scroll right to see more
 ConditionsComfort  
Time TempWeatherWind HumidityBarometerVisibility
9:53 am
Fri, Jul 19
84 °FSunny.5 mph35%29.70 "Hg10 mi
8:53 am78 °FSunny.9 mph45%29.69 "Hg10 mi
7:53 am70 °FSunny.5 mph61%29.68 "Hg10 mi
6:53 am62 °FSunny.3 mph78%29.69 "Hg10 mi
5:53 am58 °FSunny.3 mph81%29.67 "Hg10 mi
4:53 am59 °FSunny.3 mph81%29.65 "Hg10 mi
3:53 am59 °FClear.No wind87%29.63 "Hg10 mi
2:53 am63 °FClear.No wind78%29.63 "Hg10 mi
1:53 am65 °FClear.No wind70%29.63 "Hg10 mi
12:53 am68 °FClear.No wind65%29.63 "Hg10 mi
11:53 pm
Thu, Jul 18
64 °FClear.6 mph81%29.65 "Hg10 mi
10:53 pm70 °FClear.6 mph66%29.63 "Hg10 mi
9:53 pm78 °FClear.8 mph45%29.62 "Hg10 mi
8:53 pm81 °FClear.6 mph42%29.61 "Hg10 mi
7:53 pm87 °FClear.5 mph40%29.60 "Hg10 mi
6:53 pm94 °FSunny.7 mph24%29.59 "Hg10 mi
5:53 pm99 °FSunny.12 mph17%29.58 "Hg10 mi
4:53 pm101 °FSunny.13 mph14%29.59 "Hg10 mi
3:53 pm102 °FSunny.9 mph13%29.60 "Hg10 mi
2:53 pm101 °FSunny.9 mph14%29.60 "Hg10 mi
1:53 pm99 °FSunny.10 mph16%29.62 "Hg10 mi
11:53 am91 °FSunny.6 mphN/A29.68 "Hg10 mi
Weather by CustomWeather, © 2019

See weather overview